sat.trackr.live / text

‹ back to catalog

STARLINK-11600 [DTC]

NORAD 63114 · 2025-039L

PAYLOAD ACTIVE UNKNOWN

§ Identity

Operator
Country
US
Launch date
2025-02-27
Launch site
AFETR
Launch vehicle
Mass (kg)
RCS (m²)

Purposes: comms

External: N2YO · Heavens-Above · Gunter

§ Orbital elements

Epoch: 2026-09-20T16:14:05.059680Z

Period
91.67 min
Inclination
42.9987°
Eccentricity
0.0001043
Mean motion
15.70847675 rev/d
Perigee alt
355.8 km
Apogee alt
357.2 km
Semi-major
6,734.6 km
B*
4.9515e-4
RAAN
141.3654°
Arg perigee
251.4345°
Mean anomaly
108.6409°
Rev number
9,028

§ Raw data

STARLINK-11600 [DTC]1 63114U 25039L   26263.67644745  .00063593  00000+0  49515-3 0  99982 63114  42.9987 141.3654 0001043 251.4345 108.6409 15.70847675 90289

JSON: /api/v1/satellites/63114 · /tle

For live sub-satellite position, see the globe view (requires WebGL).

§ Visibility from observer

Set your observer location to see the next 7 days of passes ≥ 10°. The values pass through the URL so the page stays shareable.

No JS? Fill the form by hand. The geolocation button needs JavaScript.